Time,TemperatureF,DewpointF,PressureIn,WindDirection,WindDirectionDegrees,WindSpeedMPH,WindSpeedGustMPH,Humidity,HourlyPrecipIn,Conditions,Clouds,dailyrainin,SoftwareType,DateUTC
2013-03-06 00:01:00,27.0,26.0,29.83,North,360,2.0,9.0,96,0.00,,,0.00,,2013-03-06 05:01:00,
2013-03-06 00:11:00,27.0,26.0,29.83,North,11,3.0,9.0,96,0.00,,,0.00,,2013-03-06 05:11:00,
2013-03-06 00:22:00,27.0,26.0,29.83,North,11,3.0,9.0,96,0.00,,,0.00,,2013-03-06 05:22:00,
2013-03-06 00:32:00,26.0,25.0,29.84,North,359,1.0,8.0,96,0.00,,,0.00,,2013-03-06 05:32:00,
2013-03-06 00:42:00,26.0,25.0,29.84,North,359,1.0,8.0,96,0.00,,,0.00,,2013-03-06 05:42:00,
2013-03-06 00:52:00,26.0,25.0,29.85,NNE,27,4.0,11.0,96,0.00,,,0.00,,2013-03-06 05:52:00,
2013-03-06 01:02:00,26.0,25.0,29.85,NNE,31,2.0,8.0,96,0.00,,,0.00,,2013-03-06 06:02:00,
2013-03-06 01:11:00,26.0,25.0,29.85,NNE,31,2.0,8.0,96,0.00,,,0.00,,2013-03-06 06:11:00,
2013-03-06 01:22:00,26.0,25.0,29.86,North,350,2.0,6.0,96,0.00,,,0.00,,2013-03-06 06:22:00,
2013-03-06 01:32:00,26.0,25.0,29.86,NNE,24,3.0,9.0,96,0.00,,,0.00,,2013-03-06 06:32:00,
2013-03-06 01:42:00,26.0,25.0,29.86,NNE,24,3.0,9.0,96,0.00,,,0.00,,2013-03-06 06:42:00,
2013-03-06 01:52:00,26.0,25.0,29.87,North,357,0.0,8.0,96,0.00,,,0.00,,2013-03-06 06:52:00,
2013-03-06 02:01:00,26.0,25.0,29.88,NNE,20,0.0,8.0,96,0.00,,,0.00,,2013-03-06 07:01:00,
2013-03-06 02:11:00,26.0,25.0,29.88,NNE,20,0.0,8.0,96,0.00,,,0.00,,2013-03-06 07:11:00,
2013-03-06 02:22:00,26.0,25.0,29.89,ENE,58,0.0,8.0,96,0.00,,,0.00,,2013-03-06 07:22:00,
2013-03-06 02:31:00,26.0,25.0,29.89,North,359,1.0,8.0,96,0.00,,,0.00,,2013-03-06 07:31:00,
2013-03-06 02:42:00,26.0,25.0,29.89,North,359,1.0,8.0,96,0.00,,,0.00,,2013-03-06 07:42:00,
2013-03-06 02:52:00,26.0,25.0,29.89,NE,52,0.0,9.0,95,0.00,,,0.00,,2013-03-06 07:52:00,
2013-03-06 03:01:00,26.0,25.0,29.89,North,360,0.0,8.0,95,0.00,,,0.00,,2013-03-06 08:01:00,
2013-03-06 03:11:00,26.0,25.0,29.89,North,360,0.0,8.0,95,0.00,,,0.00,,2013-03-06 08:11:00,
2013-03-06 03:21:00,26.0,25.0,29.90,North,359,0.0,8.0,95,0.00,,,0.00,,2013-03-06 08:21:00,
2013-03-06 03:32:00,26.0,25.0,29.91,North,352,0.0,9.0,95,0.00,,,0.00,,2013-03-06 08:32:00,
2013-03-06 03:42:00,26.0,25.0,29.91,North,352,0.0,9.0,95,0.00,,,0.00,,2013-03-06 08:42:00,
2013-03-06 03:52:00,26.0,25.0,29.91,North,359,0.0,9.0,94,0.00,,,0.00,,2013-03-06 08:52:00,
2013-03-06 04:01:00,26.0,25.0,29.91,NE,45,0.0,7.0,94,0.00,,,0.00,,2013-03-06 09:01:00,
2013-03-06 04:12:00,26.0,25.0,29.91,NE,45,0.0,7.0,94,0.00,,,0.00,,2013-03-06 09:12:00,
2013-03-06 04:21:00,26.0,25.0,29.91,NNE,24,1.0,10.0,94,0.00,,,0.00,,2013-03-06 09:21:00,
2013-03-06 04:31:00,26.0,25.0,29.92,NNE,14,1.0,7.0,94,0.00,,,0.00,,2013-03-06 09:31:00,
2013-03-06 04:42:00,26.0,25.0,29.92,NNE,14,1.0,7.0,94,0.00,,,0.00,,2013-03-06 09:42:00,
2013-03-06 04:52:00,26.0,25.0,29.92,NNW,344,3.0,9.0,94,0.00,,,0.00,,2013-03-06 09:52:00,
2013-03-06 05:01:00,27.0,26.0,29.93,North,11,1.0,6.0,94,0.00,,,0.00,,2013-03-06 10:01:00,
2013-03-06 05:11:00,27.0,26.0,29.93,North,11,1.0,6.0,94,0.00,,,0.00,,2013-03-06 10:11:00,
2013-03-06 05:21:00,27.0,26.0,29.94,North,359,2.0,9.0,94,0.00,,,0.00,,2013-03-06 10:21:00,
2013-03-06 05:31:00,27.0,26.0,29.95,North,359,1.0,9.0,94,0.00,,,0.00,,2013-03-06 10:31:00,
2013-03-06 05:42:00,27.0,26.0,29.95,North,359,1.0,9.0,94,0.00,,,0.00,,2013-03-06 10:42:00,
2013-03-06 05:52:00,27.0,26.0,29.96,North,360,3.0,15.0,94,0.00,,,0.00,,2013-03-06 10:52:00,
2013-03-06 06:02:00,27.0,26.0,29.97,NE,40,0.0,10.0,94,0.00,,,0.00,,2013-03-06 11:02:00,
2013-03-06 06:11:00,27.0,26.0,29.97,NE,40,0.0,10.0,94,0.00,,,0.00,,2013-03-06 11:11:00,
2013-03-06 06:22:00,27.0,26.0,29.98,NNW,343,2.0,9.0,94,0.00,,,0.00,,2013-03-06 11:22:00,
2013-03-06 06:32:00,27.0,26.0,29.99,NE,51,2.0,9.0,94,0.00,,,0.00,,2013-03-06 11:32:00,
2013-03-06 06:42:00,27.0,26.0,29.99,NE,51,2.0,9.0,94,0.00,,,0.00,,2013-03-06 11:42:00,
2013-03-06 06:52:00,28.0,27.0,30.00,North,4,1.0,10.0,94,0.00,,,0.00,,2013-03-06 11:52:00,
2013-03-06 07:02:00,28.0,27.0,30.01,North,359,4.0,10.0,94,0.00,,,0.00,,2013-03-06 12:02:00,
2013-03-06 07:11:00,28.0,27.0,30.01,North,359,4.0,10.0,94,0.00,,,0.00,,2013-03-06 12:11:00,
2013-03-06 07:21:00,28.0,27.0,30.02,North,6,3.0,8.0,94,0.00,,,0.00,,2013-03-06 12:21:00,
2013-03-06 07:32:00,28.0,27.0,30.02,North,6,0.0,7.0,94,0.00,,,0.00,,2013-03-06 12:32:00,
2013-03-06 07:42:00,28.0,27.0,30.02,North,6,0.0,7.0,94,0.00,,,0.00,,2013-03-06 12:42:00,
2013-03-06 07:52:00,28.0,27.0,30.02,NNE,18,1.0,9.0,94,0.00,,,0.00,,2013-03-06 12:52:00,
2013-03-06 08:02:00,28.0,27.0,30.03,NNW,344,3.0,11.0,94,0.00,,,0.00,,2013-03-06 13:02:00,
2013-03-06 08:11:00,28.0,27.0,30.03,NNW,344,3.0,11.0,94,0.00,,,0.00,,2013-03-06 13:11:00,
2013-03-06 08:22:00,29.0,27.0,30.04,NE,34,3.0,8.0,94,0.00,,,0.00,,2013-03-06 13:22:00,
2013-03-06 08:32:00,29.0,27.0,30.05,North,356,4.0,9.0,94,0.00,,,0.00,,2013-03-06 13:32:00,
2013-03-06 08:42:00,29.0,27.0,30.05,North,356,4.0,9.0,94,0.00,,,0.00,,2013-03-06 13:42:00,
2013-03-06 08:52:00,29.0,27.0,30.05,NNW,344,1.0,6.0,94,0.00,,,0.00,,2013-03-06 13:52:00,
2013-03-06 09:01:00,29.0,27.0,30.06,North,353,0.0,4.0,94,0.00,,,0.00,,2013-03-06 14:01:00,
2013-03-06 09:11:00,29.0,27.0,30.06,North,353,0.0,4.0,94,0.00,,,0.00,,2013-03-06 14:11:00,
2013-03-06 09:22:00,29.0,27.0,30.07,North,7,3.0,9.0,94,0.00,,,0.00,,2013-03-06 14:22:00,
2013-03-06 09:32:00,30.0,28.0,30.07,North,359,1.0,8.0,94,0.00,,,0.00,,2013-03-06 14:32:00,
2013-03-06 09:42:00,30.0,28.0,30.07,North,359,1.0,8.0,94,0.00,,,0.00,,2013-03-06 14:42:00,
2013-03-06 09:52:00,30.0,28.0,30.07,North,10,3.0,9.0,93,0.00,,,0.00,,2013-03-06 14:52:00,
2013-03-06 10:02:00,31.0,29.0,30.08,NE,47,1.0,8.0,92,0.00,,,0.00,,2013-03-06 15:02:00,
2013-03-06 10:11:00,31.0,29.0,30.08,NE,47,1.0,8.0,92,0.00,,,0.00,,2013-03-06 15:11:00,
2013-03-06 10:21:00,31.0,29.0,30.08,North,349,0.0,9.0,92,0.00,,,0.00,,2013-03-06 15:21:00,
2013-03-06 10:32:00,32.0,30.0,30.08,NE,34,1.0,4.0,91,0.00,,,0.00,,2013-03-06 15:32:00,
2013-03-06 10:42:00,32.0,30.0,30.08,NE,34,1.0,4.0,91,0.00,,,0.00,,2013-03-06 15:42:00,
2013-03-06 10:52:00,32.0,30.0,30.09,NNE,18,0.0,6.0,91,0.00,,,0.00,,2013-03-06 15:52:00,
2013-03-06 11:01:00,32.0,30.0,30.09,North,353,1.0,7.0,91,0.00,,,0.00,,2013-03-06 16:01:00,
2013-03-06 11:11:00,32.0,30.0,30.09,North,353,1.0,7.0,91,0.00,,,0.00,,2013-03-06 16:11:00,
2013-03-06 11:21:00,32.0,30.0,30.09,NNE,28,7.0,10.0,91,0.01,,,0.01,,2013-03-06 16:21:00,
2013-03-06 11:32:00,32.0,30.0,30.11,North,353,4.0,11.0,92,0.01,,,0.01,,2013-03-06 16:32:00,
2013-03-06 11:42:00,32.0,30.0,30.11,North,353,4.0,11.0,92,0.01,,,0.01,,2013-03-06 16:42:00,
2013-03-06 11:52:00,32.0,30.0,30.11,NE,44,1.0,7.0,92,0.02,,,0.02,,2013-03-06 16:52:00,
2013-03-06 12:01:00,33.0,31.0,30.11,NE,38,3.0,8.0,92,0.02,,,0.02,,2013-03-06 17:01:00,
2013-03-06 12:11:00,33.0,31.0,30.11,NE,38,3.0,8.0,92,0.02,,,0.02,,2013-03-06 17:11:00,
2013-03-06 12:21:00,33.0,31.0,30.12,North,11,1.0,7.0,92,0.02,,,0.03,,2013-03-06 17:21:00,
2013-03-06 12:32:00,33.0,31.0,30.12,North,353,1.0,6.0,92,0.03,,,0.04,,2013-03-06 17:32:00,
2013-03-06 12:42:00,33.0,31.0,30.12,North,353,1.0,6.0,92,0.03,,,0.04,,2013-03-06 17:42:00,
2013-03-06 12:52:00,33.0,31.0,30.13,North,357,1.0,7.0,92,0.04,,,0.06,,2013-03-06 17:52:00,
2013-03-06 13:02:00,33.0,31.0,30.13,NNE,23,2.0,7.0,92,0.05,,,0.07,,2013-03-06 18:02:00,
2013-03-06 13:28:00,33.0,31.0,30.13,NNE,13,3.0,7.0,92,0.05,,,0.08,,2013-03-06 18:28:00,
2013-03-06 13:42:00,33.0,31.0,30.12,North,360,0.0,8.0,92,0.05,,,0.09,,2013-03-06 18:42:00,
2013-03-06 13:52:00,33.0,31.0,30.12,North,349,1.0,8.0,91,0.04,,,0.10,,2013-03-06 18:52:00,
2013-03-06 14:02:00,34.0,32.0,30.11,North,4,0.0,4.0,92,0.04,,,0.11,,2013-03-06 19:02:00,
2013-03-06 14:11:00,34.0,32.0,30.11,North,4,0.0,4.0,92,0.04,,,0.11,,2013-03-06 19:11:00,
2013-03-06 14:22:00,34.0,32.0,30.11,NNE,25,1.0,7.0,92,0.04,,,0.12,,2013-03-06 19:22:00,
2013-03-06 14:32:00,34.0,32.0,30.12,North,4,0.0,7.0,91,0.04,,,0.13,,2013-03-06 19:32:00,
2013-03-06 14:43:00,34.0,32.0,30.12,North,4,0.0,7.0,91,0.04,,,0.13,,2013-03-06 19:43:00,
2013-03-06 14:53:00,33.0,31.0,30.11,North,359,2.0,7.0,91,0.04,,,0.14,,2013-03-06 19:53:00,
2013-03-06 15:01:00,34.0,32.0,30.12,North,352,1.0,7.0,91,0.04,,,0.15,,2013-03-06 20:01:00,
2013-03-06 15:11:00,34.0,32.0,30.12,North,352,1.0,7.0,91,0.04,,,0.15,,2013-03-06 20:11:00,
2013-03-06 15:22:00,33.0,30.0,30.12,NNE,31,1.0,7.0,89,0.04,,,0.16,,2013-03-06 20:22:00,
2013-03-06 15:32:00,34.0,31.0,30.13,NNE,30,0.0,6.0,88,0.04,,,0.17,,2013-03-06 20:32:00,
2013-03-06 15:42:00,34.0,31.0,30.13,NNE,30,0.0,6.0,88,0.04,,,0.17,,2013-03-06 20:42:00,
2013-03-06 15:53:00,34.0,30.0,30.13,NNW,346,0.0,4.0,85,0.04,,,0.18,,2013-03-06 20:53:00,
2013-03-06 16:02:00,34.0,29.0,30.14,NNE,25,1.0,8.0,82,0.04,,,0.19,,2013-03-06 21:02:00,
2013-03-06 16:11:00,34.0,29.0,30.14,NNE,25,1.0,8.0,82,0.04,,,0.19,,2013-03-06 21:11:00,
2013-03-06 16:22:00,35.0,29.0,30.14,North,8,0.0,6.0,80,0.04,,,0.20,,2013-03-06 21:22:00,
2013-03-06 16:32:00,35.0,28.0,30.14,NE,38,1.0,7.0,76,0.03,,,0.20,,2013-03-06 21:32:00,
2013-03-06 16:42:00,35.0,28.0,30.14,NE,38,1.0,7.0,76,0.03,,,0.20,,2013-03-06 21:42:00,
2013-03-06 16:52:00,34.0,27.0,30.14,NE,37,0.0,6.0,76,0.03,,,0.21,,2013-03-06 21:52:00,
2013-03-06 17:01:00,34.0,27.0,30.15,NNE,14,1.0,6.0,74,0.02,,,0.21,,2013-03-06 22:01:00,
2013-03-06 17:11:00,34.0,27.0,30.15,NNE,14,1.0,6.0,74,0.02,,,0.21,,2013-03-06 22:11:00,
2013-03-06 17:21:00,34.0,27.0,30.15,North,6,1.0,4.0,74,0.03,,,0.22,,2013-03-06 22:21:00,
2013-03-06 17:32:00,34.0,27.0,30.16,NNW,330,0.0,2.0,74,0.02,,,0.22,,2013-03-06 22:32:00,
2013-03-06 17:41:00,34.0,27.0,30.16,NNW,330,0.0,2.0,74,0.02,,,0.22,,2013-03-06 22:41:00,
2013-03-06 17:52:00,34.0,27.0,30.16,NNE,18,1.0,4.0,74,0.02,,,0.23,,2013-03-06 22:52:00,
2013-03-06 18:01:00,34.0,27.0,30.16,NNW,346,0.0,2.0,75,0.02,,,0.23,,2013-03-06 23:01:00,
2013-03-06 18:11:00,34.0,27.0,30.16,NNW,346,0.0,2.0,75,0.02,,,0.23,,2013-03-06 23:11:00,
2013-03-06 18:21:00,34.0,27.0,30.17,North,359,1.0,4.0,75,0.01,,,0.23,,2013-03-06 23:21:00,
2013-03-06 18:32:00,34.0,27.0,30.17,North,359,0.0,4.0,76,0.01,,,0.23,,2013-03-06 23:32:00,
2013-03-06 18:42:00,34.0,28.0,30.17,North,360,0.0,4.0,77,0.00,,,0.23,,2013-03-06 23:42:00,
2013-03-06 18:52:00,34.0,28.0,30.17,North,360,0.0,4.0,77,0.00,,,0.23,,2013-03-06 23:52:00,
2013-03-06 19:01:00,33.0,27.0,30.18,North,360,0.0,2.0,78,0.00,,,0.23,,2013-03-07 00:01:00,
2013-03-06 19:11:00,33.0,27.0,30.18,North,360,0.0,2.0,78,0.00,,,0.23,,2013-03-07 00:11:00,
2013-03-06 19:21:00,33.0,27.0,30.18,North,360,0.0,1.0,79,0.00,,,0.23,,2013-03-07 00:21:00,
2013-03-06 19:32:00,33.0,28.0,30.19,North,360,0.0,1.0,80,0.01,,,0.24,,2013-03-07 00:32:00,
2013-03-06 19:41:00,33.0,28.0,30.19,North,360,0.0,1.0,80,0.01,,,0.24,,2013-03-07 00:41:00,
2013-03-06 19:52:00,33.0,28.0,30.19,North,360,0.0,0.0,82,0.01,,,0.24,,2013-03-07 00:52:00,
2013-03-06 20:01:00,33.0,28.0,30.19,North,360,0.0,0.0,83,0.01,,,0.24,,2013-03-07 01:01:00,
2013-03-06 20:11:00,33.0,28.0,30.19,North,360,0.0,0.0,83,0.01,,,0.24,,2013-03-07 01:11:00,
2013-03-06 20:21:00,33.0,28.0,30.19,North,360,0.0,0.0,83,0.01,,,0.24,,2013-03-07 01:21:00,
2013-03-06 20:31:00,33.0,29.0,30.19,North,360,0.0,2.0,84,0.00,,,0.24,,2013-03-07 01:31:00,
2013-03-06 20:41:00,33.0,29.0,30.19,North,360,0.0,2.0,84,0.00,,,0.24,,2013-03-07 01:41:00,
2013-03-06 20:52:00,33.0,29.0,30.19,North,360,0.0,1.0,84,0.00,,,0.24,,2013-03-07 01:52:00,
2013-03-06 21:01:00,33.0,29.0,30.19,North,360,0.0,2.0,85,0.00,,,0.24,,2013-03-07 02:01:00,
2013-03-06 21:11:00,33.0,29.0,30.19,North,360,0.0,2.0,85,0.00,,,0.24,,2013-03-07 02:11:00,
2013-03-06 21:21:00,33.0,29.0,30.20,North,360,0.0,2.0,86,-99.99,,,-99.99,,2013-03-07 02:21:00,
2013-03-06 21:32:00,33.0,29.0,30.20,NNW,346,0.0,2.0,86,-99.99,,,-99.99,,2013-03-07 02:32:00,
2013-03-06 21:41:00,33.0,29.0,30.20,NNW,346,0.0,2.0,86,-99.99,,,-99.99,,2013-03-07 02:41:00,
2013-03-06 21:52:00,33.0,29.0,30.20,NNW,346,0.0,2.0,86,-99.99,,,-99.99,,2013-03-07 02:52:00,
2013-03-06 22:01:00,33.0,30.0,30.21,NNW,344,0.0,2.0,88,-99.99,,,-99.99,,2013-03-07 03:01:00,
2013-03-06 22:11:00,33.0,30.0,30.20,NNW,343,0.0,2.0,89,0.00,,,-99.99,,2013-03-07 03:11:00,
2013-03-06 22:21:00,33.0,30.0,30.20,NNW,343,0.0,2.0,89,0.00,,,-99.99,,2013-03-07 03:21:00,
2013-03-06 22:32:00,33.0,30.0,30.20,North,352,0.0,2.0,90,0.00,,,-99.99,,2013-03-07 03:32:00,
2013-03-06 22:42:00,33.0,30.0,30.20,North,352,0.0,2.0,90,0.00,,,-99.99,,2013-03-07 03:42:00,
2013-03-06 22:52:00,32.0,29.0,30.20,NW,315,0.0,6.0,90,0.00,,,-99.99,,2013-03-07 03:52:00,
2013-03-06 23:01:00,32.0,30.0,30.20,North,8,0.0,4.0,91,0.00,,,-99.99,,2013-03-07 04:01:00,
2013-03-06 23:11:00,32.0,30.0,30.20,North,8,0.0,4.0,91,0.00,,,-99.99,,2013-03-07 04:11:00,
2013-03-06 23:21:00,32.0,30.0,30.21,North,8,0.0,1.0,92,0.00,,,-99.99,,2013-03-07 04:21:00,
2013-03-06 23:31:00,32.0,30.0,30.21,North,357,0.0,6.0,92,0.00,,,-99.99,,2013-03-07 04:31:00,
2013-03-06 23:42:00,32.0,30.0,30.21,North,357,0.0,6.0,92,0.00,,,-99.99,,2013-03-07 04:42:00,
2013-03-06 23:52:00,32.0,30.0,30.21,NNW,340,0.0,4.0,92,0.00,,,-99.99,,2013-03-07 04:52:00,